Location: Forst
(46.9333°N, 15.4333°E)
Time: 13:33:45
(UTC+00:00)

CZ-4 R/B - Pass Details

Date: 01 December 2020
Orbit: 532 x 598 km, 97.7° (Epoch: 27 January)

Event Time Altitude Azimuth Distance (km) Brightness Sun altitude
Rises 17:34:05 0° 170° (S) 2,713 4.8 -23.6°
Enters shadow 17:34:48 - 170° (S) 2,411 4.6 -23.7°
Exits shadow 17:40:47 60° 320° (NW) 656 1.7 -24.8°
Drops below altitude 10° 17:44:14 10° 344° (NNW) 1,890 4.1 -25.3°
Sets 17:46:25 0° 346° (NNW) 2,804 5.0 -25.7°
